Terug naar catalogus

STARLINK-37447

ActiefCommunicatieSSO
NORAD 68810·PAYLOAD·🇺🇸 United States

Gelanceerd Apr 23, 2026 vanaf Vandenberg Space Force Base

Loading…

Volgende Passages (komende 24 uur)

TLE

VersSource: CelesTrak SupGP

Epoch: Sep 14, 2026, 22:55 UTC

1 68810C 26089J   26257.95534722  .00092244  00000+0  28635-2 0  2570
2 68810  97.2851 103.7681 0001877  93.8687  39.3070 15.33391754    11

Volg STARLINK-37447 in realtime met AllMySat

Download on the App Store